Location: Mascot Post Office (historical)
(40.2645°N, 99.5462°W)
Time: 02:40:45
(UTC+00:00)

Cosmos 1833 Rocket - Pass Details

Date: 14 July 2020
Orbit: 832 x 840 km, 71.0° (Epoch: 14 August)

Event Time Altitude Azimuth Distance (km) Brightness Sun altitude
Exits shadow 09:13:14 29° 251° (WSW) 1,496 3.5 -19.1°
Maximum altitude 09:15:30 42° 300° (WNW) 1,182 3.4 -18.8°
Drops below altitude 10° 09:20:48 10° 10° (N) 2,451 6.0 -18.2°
Sets 09:23:24 0° 18° (NNE) 3,390 7.1 -17.9°
